| time (UTC) | temp F | wind direction | speed knots | gust knots | rain 1hr in | rain 24hr in | rain mn in | humidity % | barometer mb |
| 20260504001701 | 52 | 226 | 4.3 | 4.3 | 0.00 | 0.00 | 0.00 | 50 | 1013.0 |
| 20260504001156 | 53 | 210 | 6.1 | 7.8 | 0.00 | 0.00 | 0.00 | 49 | 1013.0 |
| 20260504000648 | 53 | 233 | 2.6 | 7.0 | 0.00 | 0.00 | 0.00 | 48 | 1012.9 |
| 20260504000145 | 53 | 215 | 5.2 | 7.0 | 0.00 | 0.00 | 0.00 | 48 | 1012.9 |
| 20260503235643 | 53 | 228 | 1.7 | 5.2 | 0.00 | 0.00 | 0.00 | 49 | 1012.9 |
| 20260503235140 | 53 | 183 | 3.5 | 5.2 | 0.00 | 0.00 | 0.00 | 48 | 1013.1 |
| 20260503234638 | 54 | 168 | 1.7 | 13.0 | 0.00 | 0.00 | 0.00 | 47 | 1013.0 |
| 20260503234136 | 53 | 188 | 4.3 | 9.6 | 0.00 | 0.00 | 0.00 | 48 | 1013.1 |
| 20260503233632 | 54 | 225 | 1.7 | 7.8 | 0.00 | 0.00 | 0.00 | 48 | 1013.1 |
| 20260503233128 | 54 | 287 | 2.6 | 8.7 | 0.00 | 0.00 | 0.00 | 48 | 1013.0 |
| 20260503232625 | 54 | 322 | 2.6 | 7.8 | 0.00 | 0.00 | 0.00 | 47 | 1013.0 |
| 20260503232123 | 54 | 270 | 6.1 | 6.1 | 0.00 | 0.00 | 0.00 | 47 | 1013.0 |
| 20260503231620 | 54 | 322 | 1.7 | 9.6 | 0.00 | 0.00 | 0.00 | 46 | 1013.2 |
| 20260503231117 | 54 | 228 | 4.3 | 9.6 | 0.00 | 0.00 | 0.00 | 47 | 1012.9 |
| 20260503230614 | 54 | 251 | 2.6 | 7.0 | 0.00 | 0.00 | 0.00 | 47 | 1013.0 |
| 20260503230111 | 54 | 307 | 2.6 | 11.3 | 0.00 | 0.00 | 0.00 | 47 | 1013.0 |
| 20260503225608 | 54 | 231 | 5.2 | 10.4 | 0.00 | 0.00 | 0.00 | 46 | 1012.9 |
| 20260503225102 | 54 | 221 | 8.7 | 13.9 | 0.00 | 0.00 | 0.00 | 45 | 1013.0 |
| 20260503224600 | 54 | 217 | 11.3 | 13.0 | 0.00 | 0.00 | 0.00 | 45 | 1013.1 |
| 20260503224058 | 55 | 226 | 3.5 | 4.3 | 0.00 | 0.00 | 0.00 | 46 | 1013.2 |
| 20260503223555 | 55 | 250 | 4.3 | 11.3 | 0.00 | 0.00 | 0.00 | 45 | 1013.0 |
| 20260503223050 | 55 | 214 | 4.3 | 15.6 | 0.00 | 0.00 | 0.00 | 45 | 1012.9 |
| 20260503222549 | 55 | 237 | 4.3 | 9.6 | 0.00 | 0.00 | 0.00 | 45 | 1013.0 |
| 20260503222047 | 55 | 235 | 10.4 | 11.3 | 0.00 | 0.00 | 0.00 | 45 | 1013.0 |
| 20260503221544 | 55 | 270 | 4.3 | 6.1 | 0.00 | 0.00 | 0.00 | 46 | 1012.9 |
| 20260503221042 | 55 | 319 | 1.7 | 10.4 | 0.00 | 0.00 | 0.00 | 45 | 1012.7 |
| 20260503220538 | 56 | 281 | 2.6 | 8.7 | 0.00 | 0.00 | 0.00 | 45 | 1013.1 |
| 20260503220035 | 55 | 305 | 1.7 | 10.4 | 0.00 | 0.00 | 0.00 | 46 | 1013.1 |
| 20260503215532 | 55 | 194 | 6.1 | 14.8 | 0.00 | 0.00 | 0.00 | 44 | 1013.0 |
| 20260503215029 | 56 | 217 | 0.0 | 9.6 | 0.00 | 0.00 | 0.00 | 44 | 1013.0 |
| 20260503214527 | 56 | 285 | 12.2 | 12.2 | 0.00 | 0.00 | 0.00 | 43 | 1012.9 |
| 20260503214023 | 55 | 162 | 0.9 | 7.0 | 0.00 | 0.00 | 0.00 | 47 | 1013.0 |
| 20260503213522 | 55 | 212 | 4.3 | 14.8 | 0.00 | 0.00 | 0.00 | 45 | 1012.9 |
| 20260503213018 | 57 | 213 | 8.7 | 12.2 | 0.00 | 0.00 | 0.00 | 43 | 1012.8 |
| 20260503212516 | 58 | 249 | 0.0 | 7.0 | 0.00 | 0.00 | 0.00 | 44 | 1013.0 |
| 20260503212013 | 56 | 239 | 5.2 | 14.8 | 0.00 | 0.00 | 0.00 | 44 | 1013.0 |
| 20260503211510 | 58 | 185 | 0.9 | 8.7 | 0.00 | 0.00 | 0.00 | 43 | 1013.2 |
| 20260503211010 | 57 | 229 | 2.6 | 7.8 | 0.00 | 0.00 | 0.00 | 45 | 1013.0 |
| 20260503210508 | 55 | 205 | 4.3 | 9.6 | 0.00 | 0.00 | 0.00 | 46 | 1013.0 |
| 20260503210005 | 56 | 294 | 1.7 | 6.1 | 0.00 | 0.00 | 0.00 | 46 | 1012.9 |
| 20260503205501 | 56 | 216 | 1.7 | 6.1 | 0.00 | 0.00 | 0.00 | 43 | 1013.0 |
| 20260503204956 | 57 | 246 | 2.6 | 7.8 | 0.00 | 0.00 | 0.00 | 45 | 1013.0 |
| 20260503204454 | 56 | 263 | 0.9 | 8.7 | 0.00 | 0.00 | 0.00 | 43 | 1013.0 |
| 20260503203950 | 57 | 319 | 4.3 | 7.8 | 0.00 | 0.00 | 0.00 | 43 | 1013.1 |
| 20260503203448 | 57 | 255 | 3.5 | 8.7 | 0.00 | 0.00 | 0.00 | 44 | 1013.1 |
| 20260503202945 | 56 | 222 | 7.8 | 9.6 | 0.00 | 0.00 | 0.00 | 45 | 1013.0 |
| 20260503202443 | 56 | 235 | 7.0 | 12.2 | 0.00 | 0.00 | 0.00 | 44 | 1013.2 |
| 20260503201941 | 54 | 234 | 7.8 | 10.4 | 0.00 | 0.00 | 0.00 | 45 | 1013.5 |
| 20260503201438 | 54 | 265 | 6.1 | 14.8 | 0.00 | 0.00 | 0.00 | 45 | 1013.7 |
| 20260503200935 | 56 | 248 | 2.6 | 14.8 | 0.00 | 0.00 | 0.00 | 43 | 1013.4 |
| 20260503200432 | 56 | 178 | 3.5 | 16.5 | 0.00 | 0.00 | 0.00 | 44 | 1013.5 |
| 20260503195928 | 56 | 225 | 3.5 | 11.3 | 0.00 | 0.00 | 0.00 | 46 | 1013.7 |
| 20260503195426 | 54 | 209 | 4.3 | 8.7 | 0.00 | 0.00 | 0.00 | 47 | 1013.7 |
| 20260503194922 | 54 | 262 | 5.2 | 9.6 | 0.00 | 0.00 | 0.00 | 45 | 1013.8 |
| 20260503194419 | 54 | 283 | 2.6 | 11.3 | 0.00 | 0.00 | 0.00 | 46 | 1013.8 |
| 20260503193914 | 54 | 257 | 8.7 | 16.5 | 0.00 | 0.00 | 0.00 | 47 | 1013.9 |
| 20260503193409 | 54 | 251 | 2.6 | 12.2 | 0.00 | 0.00 | 0.00 | 44 | 1014.0 |
| 20260503192905 | 56 | 214 | 3.5 | 4.3 | 0.00 | 0.00 | 0.00 | 47 | 1014.0 |
| 20260503192401 | 55 | 202 | 3.5 | 9.6 | 0.00 | 0.00 | 0.00 | 45 | 1014.1 |
| 20260503191858 | 54 | 172 | 3.5 | 9.6 | 0.00 | 0.00 | 0.00 | 45 | 1014.4 |
| 20260503191355 | 54 | 270 | 0.0 | 7.8 | 0.00 | 0.00 | 0.00 | 46 | 1014.4 |
| 20260503190852 | 55 | 268 | 4.3 | 9.6 | 0.00 | 0.00 | 0.00 | 44 | 1014.3 |
| 20260503190349 | 57 | 276 | 4.3 | 9.6 | 0.00 | 0.00 | 0.00 | 45 | 1014.4 |
| 20260503185846 | 55 | 233 | 11.3 | 17.4 | 0.00 | 0.00 | 0.00 | 44 | 1014.2 |
| 20260503185343 | 55 | 255 | 6.1 | 11.3 | 0.00 | 0.00 | 0.00 | 44 | 1014.4 |
| 20260503184842 | 55 | 291 | 0.9 | 7.8 | 0.00 | 0.00 | 0.00 | 47 | 1014.5 |
| 20260503184339 | 54 | 172 | 1.7 | 9.6 | 0.00 | 0.00 | 0.00 | 47 | 1014.6 |
| 20260503183835 | 55 | 270 | 0.0 | 8.7 | 0.00 | 0.00 | 0.00 | 47 | 1014.7 |
| 20260503183332 | 56 | 245 | 4.3 | 7.0 | 0.00 | 0.00 | 0.00 | 45 | 1014.6 |
| 20260503182829 | 56 | 251 | 4.3 | 7.0 | 0.00 | 0.00 | 0.00 | 45 | 1014.8 |
| 20260503182328 | 54 | 220 | 2.6 | 7.8 | 0.00 | 0.00 | 0.00 | 46 | 1014.8 |
| 20260503181825 | 53 | 194 | 7.0 | 13.0 | 0.00 | 0.00 | 0.00 | 45 | 1014.6 |
| 20260503181322 | 54 | 225 | 3.5 | 9.6 | 0.00 | 0.00 | 0.00 | 43 | 1015.0 |
| 20260503180818 | 56 | 217 | 3.5 | 8.7 | 0.00 | 0.00 | 0.00 | 47 | 1015.0 |
| 20260503180317 | 55 | 251 | 2.6 | 7.0 | 0.00 | 0.00 | 0.00 | 47 | 1015.0 |
| 20260503175813 | 53 | 311 | 2.6 | 13.0 | 0.00 | 0.00 | 0.00 | 47 | 1015.2 |
| 20260503175311 | 54 | 247 | 4.3 | 12.2 | 0.00 | 0.00 | 0.00 | 46 | 1015.0 |
| 20260503174806 | 53 | 266 | 9.6 | 16.5 | 0.00 | 0.00 | 0.00 | 47 | 1015.0 |
| 20260503174304 | 52 | 197 | 9.6 | 9.6 | 0.00 | 0.00 | 0.00 | 47 | 1015.1 |
| 20260503173800 | 52 | 287 | 3.5 | 11.3 | 0.00 | 0.00 | 0.00 | 49 | 1015.2 |
| 20260503173255 | 52 | 193 | 5.2 | 8.7 | 0.00 | 0.00 | 0.00 | 46 | 1015.3 |
| 20260503172753 | 52 | 180 | 1.7 | 7.0 | 0.00 | 0.00 | 0.00 | 49 | 1015.1 |
| 20260503172250 | 51 | 227 | 9.6 | 18.2 | 0.00 | 0.00 | 0.00 | 46 | 1015.3 |
| 20260503171746 | 53 | 305 | 3.5 | 16.5 | 0.00 | 0.00 | 0.00 | 47 | 1015.3 |
| 20260503171244 | 53 | 240 | 4.3 | 11.3 | 0.00 | 0.00 | 0.00 | 45 | 1015.3 |
| 20260503170740 | 53 | 203 | 5.2 | 9.6 | 0.00 | 0.00 | 0.00 | 49 | 1015.2 |
| 20260503170237 | 52 | 253 | 4.3 | 6.1 | 0.00 | 0.00 | 0.00 | 47 | 1015.3 |
| 20260503160159 | 51 | 301 | 1.7 | 7.8 | 0.00 | 0.00 | 0.00 | 46 | 1016.0 |
| 20260503150629 | 46 | 207 | 3.5 | 12.2 | 0.00 | 0.00 | 0.00 | 47 | 1016.0 |
| 20260503150125 | 48 | 270 | 2.6 | 8.7 | 0.00 | 0.00 | 0.00 | 48 | 1016.4 |
| 20260503131019 | 42 | 253 | 4.3 | 6.1 | 0.00 | 0.00 | 0.00 | 70 | 1016.6 |
| 20260503130517 | 42 | 332 | 1.7 | 4.3 | 0.00 | 0.00 | 0.00 | 71 | 1016.4 |
| 20260503110407 | 31 | 192 | 0.0 | 2.6 | 0.00 | 0.00 | 0.00 | 91 | 1016.2 |
| 20260503090258 | 30 | 185 | 0.9 | 2.6 | 0.00 | 0.00 | 0.00 | 92 | 1015.9 |
| 20260503081231 | 30 | 105 | 0.0 | 0.9 | 0.00 | 0.00 | 0.00 | 93 | 1015.6 |
| 20260503080726 | 30 | 173 | 0.0 | 1.7 | 0.00 | 0.00 | 0.00 | 93 | 1015.8 |
| 20260503080224 | 30 | 54 | 0.0 | 1.7 | 0.00 | 0.00 | 0.00 | 93 | 1015.5 |
| 20260503072700 | 29 | 151 | 0.0 | 0.9 | 0.00 | 0.00 | 0.00 | 93 | 1015.6 |
| 20260503072157 | 29 | 105 | 0.0 | 0.0 | 0.00 | 0.00 | 0.00 | 93 | 1015.8 |
| 20260503071654 | 29 | 105 | 0.9 | 0.9 | 0.00 | 0.00 | 0.00 | 92 | 1015.6 |
| 20260503071151 | 30 | 145 | 0.0 | 0.0 | 0.00 | 0.00 | 0.00 | 92 | 1015.8 |
| 20260503070648 | 29 | 145 | 0.0 | 0.0 | 0.00 | 0.00 | 0.00 | 91 | 1015.6 |
| 20260503070146 | 30 | 145 | 0.9 | 0.9 | 0.00 | 0.00 | 0.00 | 91 | 1015.6 |
| 20260503060110 | 31 | 195 | 1.7 | 1.7 | 0.00 | 0.00 | 0.00 | 88 | 1016.0 |
| 20260503055102 | 31 | 164 | 0.0 | 0.9 | 0.00 | 0.00 | 0.00 | 88 | 1016.2 |
| 20260503054557 | 31 | 173 | 0.0 | 0.9 | 0.00 | 0.00 | 0.00 | 88 | 1015.9 |
| 20260503054054 | 31 | 229 | 0.0 | 1.7 | 0.00 | 0.00 | 0.00 | 88 | 1015.9 |
| 20260503053552 | 31 | 197 | 1.7 | 1.7 | 0.00 | 0.00 | 0.00 | 88 | 1015.9 |
| 20260503053050 | 31 | 157 | 0.0 | 0.9 | 0.00 | 0.00 | 0.00 | 88 | 1016.1 |
| 20260503052547 | 31 | 111 | 0.0 | 0.9 | 0.00 | 0.00 | 0.00 | 88 | 1016.0 |
| 20260503052043 | 31 | 90 | 0.0 | 0.9 | 0.00 | 0.00 | 0.00 | 87 | 1016.0 |
| 20260503051538 | 31 | 114 | 0.0 | 0.0 | 0.00 | 0.00 | 0.00 | 87 | 1016.2 |
| 20260503051037 | 31 | 98 | 0.0 | 0.9 | 0.00 | 0.00 | 0.00 | 87 | 1016.2 |
| 20260503050532 | 31 | 111 | 0.0 | 0.9 | 0.00 | 0.00 | 0.00 | 87 | 1016.2 |
| 20260503050030 | 31 | 82 | 0.0 | 0.0 | 0.00 | 0.00 | 0.00 | 87 | 1016.2 |
| 20260503045527 | 31 | 107 | 0.0 | 0.9 | 0.00 | 0.00 | 0.00 | 87 | 1016.4 |
| 20260503045024 | 31 | 257 | 0.9 | 0.9 | 0.00 | 0.00 | 0.00 | 88 | 1016.4 |
| 20260503044520 | 31 | 90 | 0.0 | 0.0 | 0.00 | 0.00 | 0.00 | 88 | 1016.3 |
| 20260503044018 | 31 | 151 | 0.0 | 1.7 | 0.00 | 0.00 | 0.00 | 89 | 1016.5 |
| 20260503043514 | 31 | 120 | 0.0 | 0.0 | 0.00 | 0.00 | 0.00 | 88 | 1016.3 |
| 20260503043011 | 30 | 120 | 0.0 | 1.7 | 0.00 | 0.00 | 0.00 | 88 | 1016.2 |
| 20260503042508 | 31 | 105 | 0.0 | 0.9 | 0.00 | 0.00 | 0.00 | 87 | 1016.3 |
| 20260503042004 | 31 | 103 | 0.0 | 0.9 | 0.00 | 0.00 | 0.00 | 87 | 1016.4 |
| 20260503041501 | 32 | 148 | 0.0 | 0.0 | 0.00 | 0.00 | 0.00 | 87 | 1016.5 |
| 20260503040959 | 31 | 120 | 0.0 | 0.9 | 0.00 | 0.00 | 0.00 | 87 | 1016.4 |
| 20260503040456 | 31 | 120 | 0.0 | 1.7 | 0.00 | 0.00 | 0.00 | 86 | 1016.5 |
| 20260503035953 | 31 | 114 | 0.9 | 0.9 | 0.00 | 0.02 | 0.02 | 85 | 1016.5 |
| 20260503035450 | 32 | 105 | 0.0 | 0.9 | 0.00 | 0.02 | 0.02 | 85 | 1016.6 |
| 20260503034947 | 32 | 90 | 0.0 | 1.7 | 0.00 | 0.02 | 0.02 | 84 | 1016.5 |
| 20260503034444 | 32 | 109 | 0.0 | 0.9 | 0.00 | 0.02 | 0.02 | 83 | 1016.6 |
| 20260503033941 | 33 | 74 | 0.0 | 0.0 | 0.00 | 0.02 | 0.02 | 83 | 1016.5 |
| 20260503033439 | 32 | 74 | 0.0 | 0.0 | 0.00 | 0.02 | 0.02 | 83 | 1016.5 |
| 20260503032937 | 33 | 90 | 0.0 | 0.9 | 0.00 | 0.02 | 0.02 | 82 | 1016.4 |
| 20260503032435 | 33 | 82 | 0.9 | 0.9 | 0.00 | 0.02 | 0.02 | 82 | 1016.4 |
| 20260503031932 | 33 | 90 | 0.9 | 0.9 | 0.00 | 0.02 | 0.02 | 81 | 1016.6 |
| 20260503031430 | 34 | 63 | 0.9 | 0.9 | 0.00 | 0.02 | 0.02 | 80 | 1016.8 |
| 20260503030926 | 34 | 74 | 0.0 | 0.0 | 0.00 | 0.02 | 0.02 | 80 | 1016.4 |
| 20260503030423 | 34 | 105 | 0.0 | 1.7 | 0.00 | 0.02 | 0.02 | 80 | 1016.6 |
| 20260503025920 | 34 | 106 | 0.0 | 0.0 | 0.00 | 0.02 | 0.02 | 80 | 1016.7 |
| 20260503025417 | 34 | 106 | 0.0 | 0.0 | 0.00 | 0.02 | 0.02 | 81 | 1016.5 |
| 20260503024914 | 34 | 105 | 0.0 | 0.0 | 0.00 | 0.02 | 0.02 | 82 | 1016.5 |
| 20260503024411 | 34 | 66 | 0.0 | 0.0 | 0.00 | 0.02 | 0.02 | 81 | 1016.6 |
| 20260503023908 | 34 | 90 | 0.0 | 0.0 | 0.00 | 0.02 | 0.02 | 81 | 1016.6 |
| 20260503023404 | 34 | 90 | 0.0 | 0.9 | 0.00 | 0.02 | 0.02 | 80 | 1016.8 |
| 20260503022901 | 34 | 120 | 0.0 | 0.0 | 0.00 | 0.02 | 0.02 | 80 | 1017.0 |
| 20260503022355 | 34 | 120 | 0.0 | 0.0 | 0.00 | 0.02 | 0.02 | 79 | 1016.6 |
| 20260503021852 | 34 | 120 | 0.0 | 0.0 | 0.00 | 0.02 | 0.02 | 79 | 1016.9 |
| 20260503021349 | 34 | 120 | 0.0 | 0.0 | 0.00 | 0.02 | 0.02 | 79 | 1017.0 |
| 20260503020846 | 34 | 74 | 0.0 | 0.0 | 0.00 | 0.02 | 0.02 | 78 | 1016.7 |
| 20260503020344 | 34 | 74 | 0.0 | 0.9 | 0.00 | 0.02 | 0.02 | 78 | 1016.8 |
| 20260503015840 | 34 | 75 | 0.0 | 1.7 | 0.00 | 0.02 | 0.02 | 77 | 1016.7 |
| 20260503015337 | 35 | 105 | 0.0 | 0.9 | 0.00 | 0.02 | 0.02 | 77 | 1016.9 |
| 20260503014833 | 35 | 74 | 0.0 | 0.0 | 0.00 | 0.02 | 0.02 | 76 | 1016.6 |
| 20260503014331 | 35 | 90 | 0.0 | 0.0 | 0.00 | 0.02 | 0.02 | 76 | 1016.9 |
| 20260503013828 | 35 | 127 | 0.0 | 1.7 | 0.00 | 0.02 | 0.02 | 76 | 1016.7 |
| 20260503013325 | 35 | 66 | 0.9 | 0.9 | 0.00 | 0.02 | 0.02 | 75 | 1016.8 |
| 20260503012822 | 35 | 60 | 0.0 | 0.9 | 0.00 | 0.02 | 0.02 | 74 | 1016.6 |
| 20260503012320 | 36 | 192 | 0.0 | 0.0 | 0.00 | 0.02 | 0.02 | 74 | 1016.6 |
| 20260503011816 | 36 | 125 | 1.7 | 1.7 | 0.00 | 0.02 | 0.02 | 73 | 1016.7 |
| 20260503011313 | 36 | 66 | 0.0 | 1.7 | 0.00 | 0.02 | 0.02 | 73 | 1016.4 |
| 20260503010809 | 36 | 90 | 0.0 | 0.9 | 0.00 | 0.02 | 0.02 | 73 | 1016.5 |
| 20260503010307 | 36 | 220 | 0.0 | 3.5 | 0.00 | 0.02 | 0.02 | 72 | 1016.5 |
| 20260503005804 | 36 | 97 | 0.0 | 1.7 | 0.00 | 0.02 | 0.02 | 72 | 1016.5 |
| 20260503005304 | 36 | 75 | 0.0 | 1.7 | 0.00 | 0.02 | 0.02 | 71 | 1016.4 |
| 20260503004756 | 37 | 251 | 0.0 | 2.6 | 0.00 | 0.02 | 0.02 | 71 | 1016.3 |
| 20260503004255 | 37 | 18 | 0.9 | 2.6 | 0.00 | 0.02 | 0.02 | 70 | 1016.2 |
| 20260503003752 | 37 | 51 | 1.7 | 2.6 | 0.00 | 0.02 | 0.02 | 69 | 1016.3 |
| 20260503003249 | 37 | 98 | 0.0 | 1.7 | 0.00 | 0.02 | 0.02 | 70 | 1016.5 |
| 20260503002745 | 37 | 35 | 0.0 | 1.7 | 0.00 | 0.02 | 0.02 | 69 | 1016.2 |
| 20260503002243 | 37 | 140 | 0.0 | 2.6 | 0.00 | 0.02 | 0.02 | 68 | 1016.2 |